Regional Weather Roundup
Issued by NWS

Home | Current Version | Previous Version | Text Only | Print | Product List | Glossary Off
Versions: 1 2 3 4 5 6 7 8 9 10 11 12 13 14 15 16 17 18 19 20 21 22 23 24 25 26 27 28 29 30 31 32 33 34 35 36 37 38 39 40 41 42 43 44 45 46 47 48 49 50

000
ASUS43 KDTX 182010
RWRMI
MICHIGAN HOURLY REGIONAL WEATHER ROUNDUP
NATIONAL WEATHER SERVICE DETROIT/PONTIAC MI
400 PM EDT FRI AUG 18 2017

NOTE: "FAIR" INDICATES FEW OR NO CLOUDS BELOW 12,000 FEET WITH NO
SIGNIFICANT WEATHER AND/OR OBSTRUCTION TO VISIBILITY.

MIZ047>049-052>055-059>063-066>070-074>076-081>083-182100-
SOUTHEAST LOWER MICHIGAN

CITY           SKY/WX    TMP DP  RH WIND       PRES   REMARKS
ADRIAN         CLOUDY    75  62  64 W12G18    29.84S
ALMA           CLOUDY    72  60  65 W20G26    29.80S
ANN ARBOR      PTSUNNY   79  61  53 W16G22    29.81S
BAD AXE        CLOUDY    72  62  70 W17       29.75S
CARO           CLOUDY    72  61  68 W13G18    29.75F
DETROIT CITY   CLOUDY    75  61  61 NW8G17    29.79S
DETROIT        PTSUNNY   80  60  50 W17G26    29.80S
FLINT          CLOUDY    73  61  65 W17       29.79S
GROSSE ILE     PTSUNNY   79  62  55 W8G20     29.78F
HILLSDALE      CLOUDY    73  61  64 W15G21    29.85S
HOWELL         CLOUDY    74  60  59 W17G26    29.81S

CITY           SKY/WX    TMP DP  RH WIND       PRES   REMARKS
JACKSON        CLOUDY    74  60  61 W13G22    29.83S
LAMBERTVILLE   PTSUNNY   78  61  57 W14       29.82S
LANSING        CLOUDY    72  59  63 W13       29.82S
LAPEER         CLOUDY    73  61  66 W14G20    29.79S
MASON          CLOUDY    74  61  64 W12G21    29.82F
MONROE         CLOUDY    78  63  59 W15G22    29.80F
MT. CLEMENS    PTSUNNY   76  62  62 W13G21    29.77S
PONTIAC        CLOUDY    75  62  64 W14G22    29.79S
PORT HOPE        N/A     73  63  70 W13G23    29.70S
PORT HURON     CLOUDY    75  63  64 W12       29.77S
TRI CITIES     CLOUDY    72  63  73 W16       29.77S
MIDLAND        CLOUDY    73  61  64 W12G25    29.76S
TROY           CLOUDY    76  61  60 W10G17    29.81S
SAGINAW HB     CLOUDY    73  61  64 W18       29.76S
$$
MIZ043>046-050>051-056>058-064>065-071>073-077>080-182100-
SOUTHWEST LOWER MICHIGAN

CITY           SKY/WX    TMP DP  RH WIND       PRES   REMARKS
BATTLE CREEK   CLOUDY    72  62  71 W16       29.86S
BENTON HARBOR  MOSUNNY   75  59  57 W13       29.87S
BIG RAPIDS     CLOUDY    67  59  74 NW10G17   29.80S
COLDWATER      CLOUDY    74  60  62 W13G18    29.86R
FREMONT        CLOUDY    69  62  79 W8        29.82R
HOLLAND        CLOUDY    71  60  68 W15G23    29.86R
GRAND RAPIDS   CLOUDY    71  60  68 W18       29.83R
IONIA          CLOUDY    73  60  63 W14       29.81S
KALAMAZOO      CLOUDY    73  59  61 W10G24    29.86S
LUDINGTON      CLOUDY    68  60  74 NW9       29.81R
MARSHALL       CLOUDY    74  61  63 W15       29.84F
MOUNT PLEASANT CLOUDY    73  60  63 W12G22    29.78S
MUSKEGON       CLOUDY    70  60  70 W14       29.84R
SOUTH HAVEN    CLOUDY    73  62  67 W10       29.86S
$$
MIZ016>042-182100-
NORTHERN LOWER MICHIGAN

CITY           SKY/WX    TMP DP  RH WIND       PRES   REMARKS
ALPENA         CLOUDY    68  62  81 W12G23    29.70R
BEAVER ISLAND  CLOUDY    64  58  81 W13       29.74R
BELLAIRE       CLOUDY    64  61  91 W5        29.76R FOG
CADILLAC       RAIN      65  61  85 W12       29.79S
CHARLEVOIX     CLOUDY    64  60  86 W16       29.78R
FRANKFORT      CLOUDY    69  60  75 NW12      29.79R
GAYLORD        LGT RAIN  61  58  90 W12G20    29.76R FOG
GRAYLING       CLOUDY    65  59  81 W14G21    29.78R
HARBOR SPRINGS CLOUDY    64  59  85 W8G17     29.73S
HOUGHTON LAKE  CLOUDY    66  59  78 W14G22    29.78R
MANISTEE       CLOUDY    70  61  73 W14       29.80R
OSCODA         CLOUDY    74  61  63 W17G24    29.70R
PELLSTON       CLOUDY    65  59  81 W10G21    29.72R
ROGERS CITY    CLOUDY    64  60  86 W17G23    29.70R
TRAVERSE CITY  CLOUDY    66  61  84 W8        29.76R
$$
MIZ007>008-015-182100-
EASTERN UPPER MICHIGAN

CITY           SKY/WX    TMP DP  RH WIND       PRES   REMARKS
KINROSS        CLOUDY    62  59  90 W16       29.68R
MACKINAC ISLAN CLOUDY    63  61  95 W15G23    29.69S
NEWBERRY       CLOUDY    60  59  97 W13G18    29.71S
S. S. MARIE    CLOUDY    61  59  93 W14G23    29.67R FOG
MUNISING         N/A     63  59  87 NW15G23   29.75R
$$
MIZ004>006-011>014-085-182100-
CENTRAL UPPER MICHIGAN

CITY           SKY/WX    TMP DP  RH WIND       PRES   REMARKS
MANISTIQUE     CLOUDY    61  56  81 NW18G26   29.74S
ESCANABA       CLOUDY    68  57  68 NW12G18   29.76R
MENOMINEE      CLOUDY    70  58  65 VRB7      29.79R
SAWYER-GWINN   CLOUDY    61  55  82 NW10      29.78R
$$
MIZ001>003-009>011-084-182100-
WESTERN UPPER MICHIGAN

CITY           SKY/WX    TMP DP  RH WIND       PRES   REMARKS
IRON MOUNTAIN  CLOUDY    68  54  60 N14       29.79S
HOUGHTON       CLOUDY    64  55  72 W14       29.79S
COPPER HARBOR    N/A     61  55  81 N17       29.76R
IRONWOOD       MOSUNNY   68  53  58 NW10      29.86S
$$

ABBREVIATIONS USED IN REMARKS
   TC - TEMPERATURE IN CELSIUS
  WCI - WIND CHILL INDEX
   HX - HEAT INDEX
  VSB - VISIBILITY





USA.gov is the U.S. government's official web portal to all federal, state and local government web resources and services.